Grayling, MI

10:09 AM EDT on September 28, 2016 (GMT -0400)
Grayling

Weather History for KGOV - November, 2012

Change the Weather History Date:

Sunday, November 11, 2012

  Actual Average (KHTL) Record (KHTL)
Temperature  
Mean Temperature 60 °F 37 °F  
Max Temperature 68 °F 44 °F 66 °F (2012)
Min Temperature 53 °F 29 °F 6 °F (1926)
Degree Days  
Heating Degree Days 4 28  
Month to date heating degree days 292  
Since 1 July heating degree days 1270  
Growing Degree Days 10 (Base 50)    
Moisture  
Dew Point 48 °F    
Average Humidity 66    
Maximum Humidity 85    
Minimum Humidity 54    
Precipitation  
Precipitation 0.00 in 0.08 in 0.65 in (1995)
Month to date precipitation 0.86  
Year to date precipitation 25.64  
Snow  
Snow 0.00 in 0.20 in 7.10 in (1995)
Month to date snowfall 1.8  
Since 1 July snowfall 2.4  
Snow Depth -    
Sea Level Pressure  
Sea Level Pressure 29.87 in    
Wind  
Wind Speed 9 mph (South)    
Max Wind Speed 21 mph    
Max Gust Speed 34 mph    
Visibility 10 miles    
Events Rain    
T = Trace of Precipitation, MM = Missing Value Source: NWS Daily Summary

Daily Weather History Graph

Daily Weather History Graph

Search for Another Location

Airport or City:

Trip Planner

Search our weather history database for the weather conditions in past years. The results will help you decide how hot, cold, wet, or windy it might be!

Date:

Astronomy

Nov. 11, 2012 Rise Set
Actual Time 7:30 AM EST 5:14 PM EST
Civil Twilight 6:59 AM EST 5:45 PM EST
Nautical Twilight 6:24 AM EST 6:20 PM EST
Astronomical Twilight 5:50 AM EST 6:55 PM EST
Moon 4:38 AM EST (11/11) 3:41 PM EST (11/11)
Length of Visible Light 10h 46m
Length of Day
9h 43m
Waning Crescent, 7% of the Moon is Illuminated
Nov 11
Waning Crescent
Nov 13
New
Nov 20
First Quarter
Nov 28
Full
Dec 6
Last Quarter

Hourly Weather History & Observations

Time (EST) Temp. Dew Point Humidity Pressure Visibility Wind Dir Wind Speed Gust Speed Precip Events Conditions
12:14 AM 53.6 °F 48.7 °F 84% 29.89 in 10.0 mi South 9.2 mph 16.1 mph N/A   Mostly Cloudy
12:34 AM 54.0 °F 48.0 °F 80% 29.89 in 10.0 mi South 9.2 mph - N/A   Mostly Cloudy
12:54 AM 55.9 °F 49.1 °F 78% 29.89 in 10.0 mi SSW 8.1 mph - N/A   Mostly Cloudy
1:14 AM 55.4 °F 48.4 °F 77% 29.90 in 10.0 mi SW 3.5 mph - N/A   Scattered Clouds
1:34 AM 53.6 °F 47.1 °F 79% 29.90 in 10.0 mi Calm Calm - N/A   Clear
1:54 AM 53.6 °F 47.1 °F 79% 29.90 in 10.0 mi Calm Calm - N/A   Scattered Clouds
2:14 AM 55.6 °F 48.6 °F 77% 29.91 in 10.0 mi SSW 4.6 mph - N/A   Clear
2:34 AM 55.9 °F 48.2 °F 75% 29.91 in 10.0 mi Calm Calm - N/A   Clear
2:54 AM 55.9 °F 47.3 °F 73% 29.92 in 10.0 mi SSW 5.8 mph - N/A   Clear
3:14 AM 56.3 °F 47.3 °F 72% 29.93 in 10.0 mi SSW 3.5 mph - N/A   Clear
3:34 AM 55.9 °F 46.9 °F 72% 29.93 in 10.0 mi Calm Calm - N/A   Clear
3:54 AM 55.9 °F 47.7 °F 74% 29.92 in 10.0 mi South 8.1 mph - N/A   Clear
4:14 AM 55.8 °F 48.4 °F 76% 29.93 in 10.0 mi South 6.9 mph - N/A   Clear
4:34 AM 55.9 °F 47.5 °F 73% 29.92 in 10.0 mi South 8.1 mph - N/A   Clear
4:55 AM 55.9 °F 46.6 °F 71% 29.93 in 10.0 mi South 9.2 mph - N/A   Clear
5:15 AM 55.9 °F 45.7 °F 68% 29.94 in 10.0 mi South 5.8 mph - N/A   Clear
5:35 AM 55.9 °F 45.5 °F 68% 29.94 in 10.0 mi South 8.1 mph - N/A   Clear
5:55 AM 55.9 °F 46.4 °F 70% 29.94 in 10.0 mi South 5.8 mph - N/A   Clear
6:35 AM 53.6 °F 45.0 °F 73% 29.94 in 10.0 mi South 4.6 mph - N/A   Clear
6:55 AM 53.6 °F 45.3 °F 74% 29.94 in 10.0 mi South 4.6 mph - N/A   Clear
7:15 AM 53.6 °F 45.7 °F 75% 29.94 in 10.0 mi SSE 4.6 mph - N/A   Clear
7:35 AM 53.6 °F 46.4 °F 77% 29.94 in 10.0 mi SSE 5.8 mph - N/A   Clear
7:55 AM 53.6 °F 45.9 °F 75% 29.95 in 10.0 mi South 5.8 mph - N/A   Clear
8:35 AM 55.9 °F 45.7 °F 68% 29.93 in 10.0 mi South 4.6 mph - N/A   Clear
8:55 AM 55.9 °F 46.0 °F 69% 29.94 in 10.0 mi SSE 9.2 mph 18.4 mph N/A   Clear
9:15 AM 55.9 °F 46.0 °F 69% 29.94 in 10.0 mi South 10.4 mph - N/A   Clear
9:36 AM 55.9 °F 45.7 °F 68% 29.94 in 10.0 mi South 11.5 mph - N/A   Clear
9:56 AM 56.1 °F 45.7 °F 68% 29.94 in 10.0 mi South 10.4 mph 18.4 mph N/A   Clear
10:11 AM 56.3 °F 45.7 °F 68% 29.93 in 10.0 mi SSE 12.7 mph 18.4 mph N/A   Clear
10:31 AM 57.2 °F 46.6 °F 68% 29.93 in 10.0 mi SSE 13.8 mph 18.4 mph N/A   Clear
10:51 AM 58.5 °F 47.3 °F 66% 29.93 in 10.0 mi South 9.2 mph 16.1 mph N/A   Clear
11:11 AM 58.8 °F 47.1 °F 65% 29.92 in 10.0 mi South 6.9 mph - N/A   Clear
11:31 AM 61.0 °F 47.5 °F 61% 29.91 in 10.0 mi South 6.9 mph 18.4 mph N/A   Clear
11:51 AM 63.1 °F 48.4 °F 59% 29.90 in 10.0 mi South 9.2 mph 17.3 mph N/A   Clear
12:11 PM 64.4 °F 48.9 °F 57% 29.89 in 10.0 mi South 10.4 mph 24.2 mph N/A   Clear
12:31 PM 63.9 °F 47.8 °F 56% 29.89 in 10.0 mi South 16.1 mph 20.7 mph N/A   Clear
1:12 PM 66.2 °F 49.5 °F 55% 29.87 in 10.0 mi South 12.7 mph 20.7 mph N/A   Clear
1:32 PM 66.2 °F 49.6 °F 55% 29.86 in 10.0 mi SSE 12.7 mph 20.7 mph N/A   Scattered Clouds
1:52 PM 68.5 °F 51.4 °F 54% 29.86 in 10.0 mi South 15.0 mph 19.6 mph N/A   Scattered Clouds
2:12 PM 68.5 °F 51.4 °F 54% 29.85 in 10.0 mi South 15.0 mph 25.3 mph N/A   Scattered Clouds
2:32 PM 66.2 °F 50.0 °F 56% 29.85 in 10.0 mi South 17.3 mph 21.9 mph N/A   Mostly Cloudy
3:12 PM 65.7 °F 50.2 °F 57% 29.84 in 10.0 mi South 13.8 mph - N/A   Overcast
3:33 PM 66.7 °F 50.2 °F 55% 29.83 in 10.0 mi South 9.2 mph 18.4 mph N/A   Mostly Cloudy
3:53 PM 68.0 °F 51.4 °F 55% 29.82 in 10.0 mi South 13.8 mph 25.3 mph N/A   Mostly Cloudy
4:13 PM 66.4 °F 50.2 °F 56% 29.82 in 10.0 mi South 9.2 mph 19.6 mph N/A   Overcast
4:33 PM 66.2 °F 50.5 °F 57% 29.82 in 10.0 mi SSE 12.7 mph 17.3 mph N/A   Overcast
4:53 PM 66.2 °F 50.7 °F 57% 29.81 in 10.0 mi South 12.7 mph 18.4 mph N/A   Overcast
5:14 PM 64.4 °F 49.5 °F 58% 29.81 in 10.0 mi South 13.8 mph 17.3 mph N/A   Overcast
5:34 PM 65.7 °F 50.2 °F 57% 29.81 in 10.0 mi South 11.5 mph 19.6 mph N/A   Overcast
5:54 PM 63.5 °F 48.2 °F 57% 29.81 in 10.0 mi South 11.5 mph 24.2 mph N/A   Overcast
6:14 PM 63.5 °F 47.8 °F 57% 29.80 in 10.0 mi South 15.0 mph 26.5 mph N/A   Overcast
6:34 PM 63.5 °F 47.8 °F 57% 29.80 in 10.0 mi SSE 13.8 mph 21.9 mph N/A   Overcast
6:54 PM 63.5 °F 47.8 °F 57% 29.80 in 10.0 mi South 20.7 mph 26.5 mph N/A   Overcast
7:14 PM 63.5 °F 47.5 °F 56% 29.79 in 10.0 mi South 16.1 mph 28.8 mph N/A   Overcast
7:34 PM 63.5 °F 47.3 °F 56% 29.79 in 10.0 mi South 15.0 mph 28.8 mph N/A   Overcast
7:54 PM 63.5 °F 47.3 °F 56% 29.79 in 10.0 mi South 18.4 mph 25.3 mph N/A   Overcast
8:14 PM 62.4 °F 46.8 °F 57% 29.78 in 10.0 mi South 19.6 mph 31.1 mph N/A   Overcast
8:35 PM 62.1 °F 46.6 °F 57% 29.79 in 10.0 mi South 16.1 mph 31.1 mph N/A   Overcast
8:55 PM 61.2 °F 46.8 °F 59% 29.80 in 10.0 mi South 20.7 mph 31.1 mph N/A   Overcast
9:15 PM 59.9 °F 47.3 °F 63% 29.80 in 10.0 mi South 19.6 mph 32.2 mph N/A   Overcast
9:35 PM 59.9 °F 47.5 °F 64% 29.81 in 10.0 mi South 13.8 mph 18.4 mph N/A   Overcast
9:55 PM 59.9 °F 48.2 °F 65% 29.81 in 10.0 mi South 19.6 mph 27.6 mph N/A   Overcast
10:15 PM 59.9 °F 49.1 °F 67% 29.81 in 10.0 mi South 20.7 mph 34.5 mph N/A   Overcast
10:35 PM 59.0 °F 48.7 °F 69% 29.81 in 10.0 mi South 13.8 mph 27.6 mph N/A   Overcast
10:55 PM 59.9 °F 49.3 °F 68% 29.80 in 10.0 mi South 16.1 mph 26.5 mph N/A   Overcast
11:15 PM 59.2 °F 48.9 °F 69% 29.80 in 10.0 mi South 10.4 mph 20.7 mph N/A Rain Rain
11:35 PM 57.6 °F 52.2 °F 82% 29.80 in 10.0 mi South 16.1 mph 25.3 mph N/A Rain Light Rain
11:55 PM 56.3 °F 52.0 °F 85% 29.80 in 10.0 mi South 17.3 mph 29.9 mph N/A Rain Rain